Location: Gro� Glienicke
(52.4675°N, 13.1079°E)
Time: 08:31:32
(UTC+00:00)

CZ-4C R/B - Pass Details

Date: 06 July 2020
Orbit: 632 x 1369 km, 63.4° (Epoch: 04 August)

Event Time Altitude Azimuth Distance (km) Brightness Sun altitude
Rises 22:09:20 0° 310° (NW) 3,628 6.4 -13.7°
Reaches altitude 10° 22:11:47 10° 315° (NW) 2,784 5.8 -13.8°
Maximum altitude 22:18:22 57° 33° (NNE) 1,331 3.4 -14.0°
Drops below altitude 10° 22:26:10 10° 112° (ESE) 3,273 4.9 -14.3°
Sets 22:29:15 0° 116° (ESE) 4,309 5.5 -14.4°
